Retour au catalogue

IRIDIUM 7

ActifCommunicationsPO
NORAD 24793·PAYLOAD·🇺🇸 United States

Lancé May 5, 1997 depuis Vandenberg Space Force Base

Loading…

Prochains Passages (prochaines 24 heures)

TLE

FraisSource: Space-Track

Époque: Sep 14, 2026, 16:06 UTC

1 24793U 97020B   26257.67134510  .00000232  00000-0  72801-4 0  9991
2 24793  86.4016 346.3309 0002528  89.1330 271.0156 14.36284978537123

Suivez IRIDIUM 7 en temps réel avec AllMySat

Download on the App Store